Home > Weather > Rankweil > Past weeks

Flag for Austria Weather for the Past 2 Weeks in Rankweil, Vorarlberg, Austria

Now
41 °F

Quite cool.


Feels Like: 41 °F
Forecast: 31 / 45 °F
Wind: 2 mph from Northeast

Location: Feldkirch

Current Time: Feb 14, 2016 at 6:54:44 PM

Latest Report: Feb 14, 2016 at 6:00 PM


Visibility: N/A

Pressure: 29.38 "Hg

Humidity: 78%

Dew point: 35 °F

Location of RankweilLocation

Historic Weather in Rankweil — Graph

°F

Rankweil Temperature Yesterday

Maximum temperature yesterday: 49 °F (at 4:00 PM)
Minimum temperature yesterday: 34 °F (at 6:00 AM)
Average temperature yesterday: 41 °F

High & Low Weather Summary for the Past Weeks

 TemperatureHumidityPressure
High61 °F (Feb 1, 3:00 PM)98% (Jan 31, 9:00 PM)30.50 "Hg (Jan 31, 9:00 PM)
Low28 °F (Feb 11, 8:00 AM)29% (Feb 9, 2:00 PM)29.15 "Hg (Feb 14, 10:00 AM)
Average43 °F70%29.88 "Hg
* Reported Jan 30 5:00 PM — Feb 14 5:00 PM, Rankweil, Weather by CustomWeather, © 2016

Note: Actual official high and low records may vary slightly from our data, if they occured in-between our weather recording intervals... More about our weather records

Advertising

Rankweil Weather History for the Previous 24 Hours

 ConditionsComfort  
Time TempWeatherWind HumidityBarometerVisibility
5:00 PM
Sun, Feb 14
42 °FSprinkles. Cloudy.3 mph80%29.35 "HgN/A
4:00 PM42 °FQuite cool.5 mph83%29.29 "HgN/A
3:00 PM44 °FFog.6 mph80%29.23 "HgN/A
2:00 PM50 °FCool.2 mph62%29.18 "HgN/A
1:00 PM49 °FCool.5 mph59%29.15 "HgN/A
12:00 PM50 °FCool.2 mph55%29.15 "HgN/A
11:00 AM48 °FCool.1 mph57%29.15 "HgN/A
10:00 AM46 °FPartly sunny.1 mph60%29.15 "Hg16 mi
9:00 AM38 °FChilly.2 mph82%29.21 "HgN/A
8:00 AM36 °FChilly.1 mph85%29.21 "HgN/A
7:00 AM36 °FOvercast.1 mph84%29.21 "Hg12 mi
6:00 AM36 °FChilly.1 mph83%29.23 "HgN/A
9:00 PM
Sat, Feb 13
42 °FFog.2 mph90%29.29 "HgN/A
8:00 PM44 °FFog.1 mph81%29.29 "HgN/A
7:00 PM45 °FCool.2 mph74%29.29 "HgN/A
6:00 PM46 °FCool.1 mph65%29.21 "HgN/A
Weather by CustomWeather, © 2016

See weather overviewHow to use our weather pages